Zapata, TX

11:50 PM CST on December 17, 2017 (GMT -0600)
Zapata

Weather History for KAPY - March, 2013

Change the Weather History Date:

Monday, March 18, 2013

  Actual Average (KLRD) Record (KLRD)
Temperature  
Mean Temperature 80 °F -  
Max Temperature 98 °F 75 °F 101 °F (1908)
Min Temperature 63 °F 56 °F 36 °F (1988)
Cooling Degree Days 16    
Growing Degree Days 30 (Base 50)    
Moisture  
Dew Point 30 °F    
Average Humidity 26    
Maximum Humidity 93    
Minimum Humidity 4    
Precipitation  
Precipitation 0.00 in - - ()
Sea Level Pressure  
Sea Level Pressure 29.76 in    
Wind  
Wind Speed 7 mph (North)    
Max Wind Speed 14 mph    
Max Gust Speed 28 mph    
Visibility 9 miles    
Events      
Averages and records for this station are not official NWS values.
T = Trace of Precipitation, MM = Missing Value Source: NWS Daily Summary

Daily Weather History Graph

Daily Weather History Graph

Search for Another Location

Airport or City:

Trip Planner

Search our weather history database for the weather conditions in past years. The results will help you decide how hot, cold, wet, or windy it might be!

Date:

Astronomy

Mar. 18, 2013 Rise Set
Actual Time 7:42 AM CDT 7:47 PM CDT
Civil Twilight 7:19 AM CDT 8:10 PM CDT
Nautical Twilight 6:52 AM CDT 8:37 PM CDT
Astronomical Twilight 6:25 AM CDT 9:04 PM CDT
Moon 12:13 PM CDT 1:18 AM CDT
Length of Visible Light 12h 51m
Length of Day
12h 04m
Waxing Crescent, 41% of the Moon is Illuminated
Mar 18
Waxing Crescent
Mar 19
First Quarter
Mar 27
Full
Apr 2
Last Quarter
Apr 10
New

Hourly Weather History & Observations

Time (CDT) Temp. Dew Point Humidity Pressure Visibility Wind Dir Wind Speed Gust Speed Precip Events Conditions
12:15 AM 76.3 °F 61.5 °F 60% 29.70 in 10.0 mi SSE 12.7 mph 20.7 mph N/A   Clear
12:35 AM 74.8 °F 61.7 °F 64% 29.70 in 10.0 mi SE 12.7 mph 17.3 mph N/A   Clear
7:15 AM 64.9 °F 62.8 °F 93% 29.77 in 5.0 mi WNW 12.7 mph 27.6 mph N/A   Scattered Clouds
8:15 AM 63.9 °F 61.5 °F 92% 29.77 in 4.0 mi ENE 4.6 mph - N/A   Clear
8:35 AM 64.9 °F 62.4 °F 92% 29.77 in 5.0 mi Calm Calm - N/A   Clear
8:55 AM 66.9 °F 61.9 °F 84% 29.79 in 5.0 mi NNW 3.5 mph - N/A   Haze
9:15 AM 68.7 °F 61.7 °F 78% 29.80 in 7.0 mi NNW 3.5 mph - N/A   Clear
12:35 PM 86.9 °F 50.2 °F 28% 29.83 in 10.0 mi NW 11.5 mph 16.1 mph N/A   Clear
1:55 PM 93.2 °F 37.2 °F 14% 29.81 in 10.0 mi NNW 11.5 mph - N/A   Clear
3:35 PM 97.5 °F 24.1 °F 7% 29.76 in 10.0 mi NNW 10.4 mph 17.3 mph N/A   Clear
3:55 PM 97.0 °F 24.3 °F 7% 29.75 in 10.0 mi NNW 9.2 mph - N/A   Clear
4:15 PM 97.7 °F 16.5 °F 5% 29.74 in 10.0 mi NNW 13.8 mph 19.6 mph N/A   Clear
4:35 PM 98.4 °F 23.0 °F 7% 29.74 in 10.0 mi NW 5.8 mph - N/A   Clear
5:15 PM 97.9 °F 21.2 °F 6% 29.73 in 10.0 mi NW 5.8 mph - N/A   Clear
5:35 PM 97.0 °F 20.1 °F 6% 29.73 in 10.0 mi West 4.6 mph - N/A   Clear
5:55 PM 96.8 °F 17.6 °F 6% 29.73 in 10.0 mi West 3.5 mph - N/A   Clear
6:15 PM 96.4 °F 14.7 °F 5% 29.72 in 10.0 mi NNW 3.5 mph - N/A   Clear
6:35 PM 96.8 °F 13.5 °F 5% 29.73 in 10.0 mi NNW 8.1 mph - N/A   Clear
6:55 PM 96.1 °F 9.9 °F 4% 29.73 in 10.0 mi NNW 4.6 mph - N/A   Clear
7:15 PM 95.0 °F 12.9 °F 5% 29.73 in 10.0 mi Calm Calm - N/A   Clear
7:35 PM 92.5 °F 14.5 °F 6% 29.74 in 10.0 mi NNE 3.5 mph - N/A   Clear
7:55 PM 90.0 °F 15.6 °F 6% 29.74 in 10.0 mi NE 4.6 mph - N/A   Clear
8:15 PM 87.6 °F 16.3 °F 7% 29.75 in 10.0 mi NE 3.5 mph - N/A   Clear
8:35 PM 80.2 °F 19.0 °F 10% 29.76 in 10.0 mi ENE 3.5 mph - N/A   Clear
8:55 PM 82.9 °F 17.8 °F 9% 29.77 in 10.0 mi NE 4.6 mph - N/A   Clear
9:15 PM 75.6 °F 19.8 °F 12% 29.77 in 10.0 mi NE 3.5 mph - N/A   Clear
9:35 PM 70.9 °F 23.0 °F 17% 29.78 in 10.0 mi NNE 3.5 mph - N/A   Clear
9:55 PM 69.3 °F 23.9 °F 18% 29.79 in 10.0 mi Calm Calm - N/A   Clear
10:15 PM 68.4 °F 24.6 °F 19% 29.80 in 10.0 mi Calm Calm - N/A   Clear
10:55 PM 65.3 °F 23.9 °F 21% 29.82 in 10.0 mi Calm Calm - N/A   Clear
11:15 PM 64.9 °F 24.1 °F 21% 29.82 in 10.0 mi Calm Calm - N/A   Clear
11:35 PM 63.5 °F 24.6 °F 23% 29.83 in 10.0 mi Calm Calm - N/A   Clear
11:55 PM 63.5 °F 24.6 °F 23% 29.84 in 10.0 mi East 3.5 mph - N/A   Clear